Regional Weather Roundup
Issued by NWS

Home | Current Version | Previous Version | Text Only | Print | Product List | Glossary Off
Versions: 1 2 3 4 5 6 7 8 9 10 11 12 13 14 15 16 17 18 19 20 21 22 23 24 25 26 27 28 29 30 31 32 33 34 35 36 37 38 39 40 41 42 43 44 45 46 47 48 49 50

464
ASUS43 KDMX 291508
RWRIA

WEATHER ROUNDUP FOR IOWA
NATIONAL WEATHER SERVICE DES MOINES IA
1000 AM CDT SUN MAY 29 2016

NOTE: "FAIR" INDICATES FEW OR NO CLOUDS BELOW 12,000 FEET WITH NO
SIGNIFICANT WEATHER AND/OR OBSTRUCTIONS TO VISIBILITY.

* - THESE STATIONS ARE NOT NWS STATIONS...THUS NOT UNDER NWS
QUALITY CONTROL.  THEY ALSO DO NOT REPORT WEATHER SUCH
AS PRECIPITATION OR FOG.

IAZ001>003-012>014-020>022-031>034-043>046-291600-
   NORTHWEST IOWA

CITY           SKY/WX    TMP DP  RH WIND       PRES   REMARKS
CARROLL *      SUNNY     72  61  68 W10       30.08R
CHEROKEE *     SUNNY     68  64  88 W7        30.07R
DENISON *      SUNNY     68  59  73 W12       30.07S
LE MARS *      SUNNY     70  61  73 S7        30.07S
ORANGE CITY *  SUNNY     66  61  82 SW9       30.06S
SHELDON *      SUNNY     70  63  78 W13       30.04R
SIOUX CITY     SUNNY     71  60  68 SW8       30.07S
SPENCER        SUNNY     69  60  73 W14       30.04S
STORM LAKE *   SUNNY     68  61  77 W10       30.08R
$$

IAZ055>058-069>071-079>083-090>094-291600-
   SOUTHWEST IOWA

CITY           SKY/WX    TMP DP  RH WIND       PRES   REMARKS
ATLANTIC *     SUNNY     68  59  73 SW5       30.10S
AUDUBON *      SUNNY     68  59  73 SW8       30.10S
CLARINDA *       N/A     70  61  73 MISG      30.12S
COUNCIL BLFS * SUNNY     70  59  68 SW6       30.10S
CRESTON *      MOSUNNY   68  59  73 VRB6      30.12R
HARLAN  *      PTSUNNY   68  57  68 SW6       30.12F
LAMONI         SUNNY     71  61  70 W5        30.10R
RED OAK *      MOSUNNY   70  61  73 S5        30.11R
SHENANDOAH *   MOSUNNY   72  63  73 CALM      30.11S
$$

IAZ047>049-059>061-072>074-084-291600-
   CENTRAL IOWA

CITY           SKY/WX    TMP DP  RH WIND       PRES   REMARKS
AMES           MOSUNNY   69  61  75 W14       30.07R
ANKENY *       SUNNY     70  61  73 W8        30.07S
BOONE *        MOSUNNY   68  61  77 W14       30.07R
CHARITON *     SUNNY     70  59  68 W6        30.09S
DES MOINES     MOSUNNY   70  58  65 W10       30.08R
GRINNELL*      SUNNY     68  61  77 W7        30.07F
KNOXVILLE *    SUNNY     70  59  68 W9        30.07S
MARSHALLTOWN   SUNNY     69  61  75 W8        30.05S
NEWTON *       SUNNY     68  63  83 SW6       30.07R
PELLA *        SUNNY     70  61  73 W8        30.09S
PERRY *        PTSUNNY   70  61  73 W12       30.08S
$$

IAZ004>006-015-016-023>025-035-036-291600-
   NORTH CENTRAL IOWA

CITY           SKY/WX    TMP DP  RH WIND       PRES   REMARKS
ALGONA *       SUNNY     70  61  73 W14G20    30.04R
CLARION *      SUNNY     70  61  73 W15       30.05R
ESTHERVILLE    SUNNY     68  61  78 W15       30.02S
FORT DODGE *   SUNNY     70  57  64 W12       30.07R
MASON CITY     SUNNY     69  61  75 W17       30.04R
FOREST CITY *  MOSUNNY   68  61  77 W8        30.03R
WEBSTER CITY * SUNNY     70  61  73 W13       30.04R
IOWA FALLS *     N/A     70  61  73 W13       30.06S
$$

IAZ007>011-017>019-026>030-037>042-050>054-066-291600-
   NORTHEAST IOWA

CITY           SKY/WX    TMP DP  RH WIND       PRES   REMARKS
CEDAR RAPIDS   MOSUNNY   70  63  78 W13       30.04S
CHARLES CITY * MOSUNNY   70  63  78 W14G20    30.02S
CLINTON *      CLOUDY    70  63  78 W14       30.03R
DECORAH *      MOSUNNY   68  61  77 NW8G16    29.99R
DUBUQUE        MOSUNNY   68  59  73 W15       30.02R
MONTICELLO *   MOSUNNY   70  61  73 W14       30.03R
OELWEIN *      MOSUNNY   70  63  78 W15       30.03R
WATERLOO       MOSUNNY   70  60  70 W14       30.02R
$$

IAZ064-065-067-068-078-291600-
   EAST CENTRAL IOWA

CITY           SKY/WX    TMP DP  RH WIND       PRES   REMARKS
DAVENPORT      PTSUNNY   69  61  75 W16       30.05R
IOWA CITY      MOSUNNY   71  61  70 W15G21    30.06S
MT. PLEASANT * SUNNY     73  63  68 W10       30.08R
MUSCATINE *    MOSUNNY   72  61  68 W10       30.06R
QUAD CITIES    PTSUNNY   73  61  65 W10       30.04R
$$

IAZ062-063-075>077-085>089-095>099-291600-
   SOUTHEAST IOWA

CITY           SKY/WX    TMP DP  RH WIND       PRES   REMARKS
BURLINGTON     SUNNY     72  62  71 W9        30.07R
FAIRFIELD *      N/A    N/A N/A N/A MISG        N/A
FORT MADISON * SUNNY     72  63  73 W9        30.09R
KEOKUK *       SUNNY     73  61  64 W7        30.08R
OSKALOOSA *      N/A     70  59  68 W10       30.08S
OTTUMWA        SUNNY     70  61  73 NW7       30.08R
WASHINGTON *   SUNNY     70 -38   1 W10       30.08S
$$

ABBREVIATIONS USED IN REMARKS
   TC - TEMPERATURES IN CELSIUS
  WCI - WIND CHILL INDEX
   HX - HEAT INDEX
  VSB - VISIBILITY
$$





USA.gov is the U.S. government's official web portal to all federal, state and local government web resources and services.